Location: *
(50.5492°N, 7.7469°E)
Time: 13:17:56
(UTC+00:00)

STARLINK-79 - Pass Details

Date: 21 October 2019
Orbit: 548 x 551 km, 53.0° (Epoch: 21 November)

Event Time Altitude Azimuth Distance (km) Brightness Sun altitude
Rises 17:49:14 0° 275° (W) 2,718 9.1 -13.9°
Reaches altitude 10° 17:51:30 10° 279° (W) 1,824 7.7 -14.3°
Maximum altitude 17:55:36 60° 0° (N) 633 3.9 -15.0°
Enters shadow 17:57:43 27° 72° (ENE) 1,083 4.6 -15.3°
